Location: *
(47.8307°S, 178.3954°E)
Time: 07:14:00
(UTC+00:00)

Lacrosse 5 - Pass Details

Date: 12 August 2024
Orbit: 714 x 724 km, 57.0° (Epoch: 09 March)

Event Time Altitude Azimuth Distance (km) Brightness Sun altitude
Exits shadow 17:57:27 15° 234° (SW) 1,912 3.5 -13.1°
Maximum altitude 18:01:46 84° 320° (NW) 744 1.9 -12.4°
Drops below altitude 10° 18:06:55 10° 49° (NE) 2,226 5.4 -11.5°
Sets 18:09:17 0° 49° (NE) 3,140 6.3 -11.1°
